Flag for Italy Weather past 2 weeks in Naples, Italy

Now
81 °F

Scattered clouds.


Feels Like: 85 °F
Forecast: 69 / 82 °F
Wind: 6 mph from South

Location: Naples / Capodichino

Current Time: Aug 23, 2014 at 6:31:28 PM

Latest Report: Aug 23, 2014 at 5:50 PM


Visibility: N/A

Pressure: 29.95 "Hg

Humidity: 74%

Dew point: 72 °F

Location of NaplesLocation

Historic Weather in Naples — Graph

°F

Naples temperature yesterday

Maximum temperature yesterday: 88 °F (at 2:20 PM)
Minimum temperature yesterday: 73 °F (at 6:20 AM)
Average temperature yesterday: 80 °F

Past Weeks' High & Low Weather Summary

 TemperatureHumidityPressure
High91 °F (Aug 11, 2:20 PM)89% (Aug 9, 2:20 AM)30.04 "Hg (Aug 9, 2:20 AM)
Low64 °F (Aug 17, 4:50 AM)21% (Aug 11, 2:20 PM)29.83 "Hg (Aug 13, 5:50 PM)
Average78 °F62%29.97 "Hg
* Reported Aug 8 4:20 PM — Aug 23 4:50 PM, Naples, Weather by CustomWeather, © 2014

Note: Actual official high and low records may vary slightly from our data, if they occured in-between our weather recording intervals... More about our weather records

Advertising

Naples weather history for previous 24 hours

 ConditionsComfort  
Time TempWeatherWind HumidityBarometerVisibility
4:50 PM
Aug 23
79 °FScattered clouds.9 mph79%29.95 "HgN/A
4:20 PM81 °FScattered clouds.8 mph58%29.95 "HgN/A
3:50 PM82 °FScattered clouds.8 mph58%29.95 "HgN/A
3:20 PM84 °FScattered clouds.9 mph48%29.95 "HgN/A
2:50 PM82 °FScattered clouds.10 mph55%29.95 "HgN/A
2:20 PM82 °FScattered clouds.9 mph62%29.95 "HgN/A
1:50 PM82 °FScattered clouds.10 mph62%29.95 "HgN/A
1:20 PM82 °FPassing clouds.12 mph55%29.98 "HgN/A
12:50 PM84 °FPassing clouds.9 mph55%29.98 "HgN/A
12:20 PM84 °FPassing clouds.8 mph58%29.98 "HgN/A
11:50 AM84 °FPassing clouds.7 mph55%29.98 "HgN/A
11:20 AM82 °FPassing clouds.7 mph55%29.98 "HgN/A
10:50 AM82 °FPassing clouds.3 mph55%29.98 "HgN/A
10:20 AM82 °FSunny.2 mph58%29.98 "Hg10 mi
9:50 AMN/A2 mphN/AN/AN/A
9:20 AM77 °FPassing clouds.3 mph69%29.98 "HgN/A
8:50 AM75 °FPassing clouds.5 mph74%29.98 "HgN/A
8:20 AM75 °FSunny.No wind78%29.98 "Hg10 mi
7:50 AM73 °FSunny.2 mph78%29.98 "Hg10 mi
7:20 AM72 °FSunny.2 mph83%29.98 "Hg10 mi
6:50 AM70 °FClear.1 mph83%29.98 "Hg10 mi
6:20 AM70 °FClear.No wind83%29.98 "Hg10 mi
5:50 AM70 °FClear.1 mph83%29.98 "Hg10 mi
5:20 AM70 °FClear.1 mph88%29.98 "Hg10 mi
4:50 AM70 °FClear.No wind83%29.98 "Hg10 mi
4:20 AM70 °FClear.2 mph88%29.98 "Hg10 mi
3:50 AM72 °FClear.No wind83%29.98 "Hg10 mi
3:20 AM72 °FClear.No wind83%29.98 "Hg10 mi
2:50 AM72 °FClear.No wind88%29.98 "Hg10 mi
2:20 AM72 °FClear.No wind83%30.01 "Hg10 mi
1:50 AM72 °FClear.No wind83%30.01 "Hg10 mi
12:50 AM73 °FClear.1 mph78%30.01 "Hg10 mi
12:20 AM73 °FClear.No wind83%30.01 "Hg10 mi
11:50 PM
Aug 22
75 °FClear.2 mph78%30.01 "Hg10 mi
11:20 PM75 °FClear.2 mph78%30.01 "Hg10 mi
10:50 PM75 °FClear.2 mph78%30.01 "Hg10 mi
10:20 PM77 °FClear.1 mph74%30.01 "Hg10 mi
9:50 PM77 °FClear.No wind74%30.01 "Hg10 mi
9:20 PM77 °FClear.1 mph74%30.01 "Hg10 mi
8:50 PM77 °FSunny.1 mph74%30.01 "Hg10 mi
8:20 PM79 °FSunny.1 mph70%30.01 "Hg10 mi
7:50 PM81 °FPassing clouds.3 mph66%29.98 "HgN/A
7:20 PM82 °FSunny.2 mph58%29.98 "Hg10 mi
6:50 PM82 °FSunny.3 mph55%29.98 "Hg10 mi
6:20 PM82 °FPassing clouds.6 mph55%29.98 "HgN/A
Weather by CustomWeather, © 2014

See weather overviewHow to use our weather pages